Long Beach, CA

2:09 PM PDT on May 23, 2018 (GMT -0700)
Long Beach

Weather History for KLGB - December, 2013

Change the Weather History Date:

Saturday, December 28, 2013

  Actual Average Record
Temperature  
Mean Temperature 58 °F 56 °F  
Max Temperature 67 °F 67 °F 84 °F (1963)
Min Temperature 49 °F 46 °F 32 °F (1962)
Degree Days  
Heating Degree Days 7 9  
Month to date heating degree days 200 243  
Since 1 July heating degree days 295 392  
Cooling Degree Days 0 0  
Month to date cooling degree days 12 0  
Year to date cooling degree days 1239 1125  
Growing Degree Days 8 (Base 50)    
Moisture  
Dew Point 44 °F    
Average Humidity 61    
Maximum Humidity 89    
Minimum Humidity 32    
Precipitation  
Precipitation 0.00 in 0.08 in 1.90 in (2004)
Month to date precipitation 0.34 1.71  
Year to date precipitation 4.18 12.02  
Since 1 July precipitation 1.31  
Sea Level Pressure  
Sea Level Pressure 29.99 in    
Wind  
Wind Speed 2 mph (SSE)    
Max Wind Speed 10 mph    
Max Gust Speed 14 mph    
Visibility 8 miles    
Events Fog    
T = Trace of Precipitation, MM = Missing Value Source: NWS Daily Summary

Daily Weather History Graph

Daily Weather History Graph

Search for Another Location

Airport or City:

Astronomy

Dec. 28, 2013 Rise Set
Actual Time 6:56 AM PST 4:52 PM PST
Civil Twilight 6:28 AM PST 5:19 PM PST
Nautical Twilight 5:57 AM PST 5:51 PM PST
Astronomical Twilight 5:27 AM PST 6:21 PM PST
Moon 2:44 AM PST (12/28) 1:41 PM PST (12/28)
Length of Visible Light 10h 50m
Length of Day
9h 55m
Waning Crescent, 18% of the Moon is Illuminated
Dec 28
Waning Crescent
Jan 1
New
Jan 7
First Quarter
Jan 15
Full
Jan 23
Last Quarter

Hourly Weather History & Observations

Time (PST) Temp. Dew Point Humidity Pressure Visibility Wind Dir Wind Speed Gust Speed Precip Events Conditions
12:53 AM 53.1 °F 33.1 °F 47% 30.02 in 10.0 mi Calm Calm - N/A   Clear
1:53 AM 53.1 °F 34.0 °F 48% 30.02 in 10.0 mi Calm Calm - N/A   Clear
2:53 AM 52.0 °F 34.0 °F 50% 30.00 in 10.0 mi Calm Calm - N/A   Clear
3:53 AM 52.0 °F 36.0 °F 54% 30.01 in 10.0 mi Calm Calm - N/A   Clear
4:53 AM 53.1 °F 37.9 °F 57% 29.99 in 10.0 mi Calm Calm - N/A   Clear
5:53 AM 51.1 °F 37.0 °F 59% 30.00 in 10.0 mi Calm Calm - N/A   Clear
6:53 AM 51.1 °F 37.9 °F 61% 30.01 in 10.0 mi South 3.5 mph - N/A   Clear
7:53 AM 53.1 °F 33.1 °F 47% 30.01 in 10.0 mi Calm Calm - N/A   Clear
8:53 AM 57.0 °F 32.0 °F 39% 30.02 in 10.0 mi Calm Calm - N/A   Clear
9:53 AM 63.0 °F 32.0 °F 31% 30.03 in 10.0 mi Calm Calm - N/A   Clear
10:53 AM 66.0 °F 39.9 °F 38% 30.01 in 10.0 mi Variable 4.6 mph - N/A   Clear
11:53 AM 66.0 °F 39.9 °F 38% 29.98 in 10.0 mi SE 9.2 mph - N/A   Clear
12:53 PM 66.0 °F 42.1 °F 42% 29.95 in 10.0 mi SSW 5.8 mph - N/A   Clear
1:53 PM 64.9 °F 46.9 °F 52% 29.94 in 10.0 mi South 6.9 mph - N/A   Clear
2:53 PM 64.0 °F 51.1 °F 63% 29.94 in 10.0 mi South 5.8 mph - N/A   Partly Cloudy
3:35 PM 62.6 °F 51.8 °F 68% 29.94 in 10.0 mi SSE 6.9 mph - N/A   Partly Cloudy
3:53 PM 62.1 °F 52.0 °F 70% 29.93 in 10.0 mi SSE 6.9 mph - N/A   Partly Cloudy
4:53 PM 60.1 °F 53.1 °F 78% 29.94 in 10.0 mi SSE 4.6 mph - N/A   Clear
5:07 PM 59.0 °F 53.6 °F 82% 29.94 in 10.0 mi SSE 5.8 mph - N/A   Scattered Clouds
5:53 PM 59.0 °F 53.1 °F 81% 29.95 in 9.0 mi SSE 3.5 mph - N/A   Scattered Clouds
6:53 PM 57.0 °F 52.0 °F 83% 29.96 in 8.0 mi SE 4.6 mph - N/A   Partly Cloudy
7:53 PM 55.9 °F 51.1 °F 84% 29.98 in 6.0 mi Calm Calm - N/A   Haze
7:58 PM 55.4 °F 50.0 °F 82% 29.98 in 8.0 mi Calm Calm - N/A   Clear
8:28 PM 53.6 °F 48.2 °F 82% 29.99 in 8.0 mi Calm Calm - N/A   Scattered Clouds
8:53 PM 54.0 °F 50.0 °F 86% 29.99 in 8.0 mi Calm Calm - N/A   Scattered Clouds
9:53 PM 53.1 °F 48.9 °F 86% 30.00 in 8.0 mi Calm Calm - N/A   Clear
10:25 PM 51.8 °F 46.4 °F 82% 30.01 in 2.5 mi Calm Calm - N/A   Partly Cloudy
10:34 PM 51.8 °F 46.4 °F 82% 30.00 in 1.0 mi Calm Calm - N/A   Mist
10:38 PM 50.0 °F 46.4 °F 87% 30.01 in 0.2 mi Calm Calm - N/A Fog Fog
10:53 PM 50.0 °F 46.9 °F 89% 30.01 in 0.2 mi Calm Calm - N/A Fog Fog
11:53 PM 48.9 °F 46.0 °F 90% 30.01 in 0.2 mi Calm Calm - N/A Fog Fog